Terminal Aerodrome Forecast
Issued by NWS Cleveland, OH

Home | Current Version | Previous Version | Graphics & Text | Print | Product List | Glossary On
Versions: 1 2 3 4 5 6 7 8 9 10 11 12 13 14 15 16 17 18 19 20
144
FTUS41 KCLE 170202 AAA
TAFMFD
TAF AMD
KMFD 170202Z 1702/1724 16010KT 3SM -RA BR OVC006
      TEMPO 1703/1706 3/4SM -RA BR OVC003
     FM171600 23012G20KT 4SM BR OVC006=

USA.gov is the U.S. government's official web portal to all federal, state and local government web resources and services.